Other Public Products
Issued by NWS Grand Forks, ND

Home | Current Version | Previous Version | Text Only | Print | Product List | Glossary Off
Versions: 1 2 3 4 5 6 7 8 9 10 11 12 13 14 15 16 17 18 19 20 21 22 23 24 25 26 27 28 29 30 31 32 33 34 35 36 37 38 39 40 41 42 43 44 45 46 47 48 49 50

000
FPUS83 KFGF 220431
OPUFGF
PRAIRIE TO PINES WEATHER ROUNDUP
NATIONAL WEATHER SERVICE EASTERN NORTH DAKOTA/GRAND FORKS ND
1000 PM CST FRI NOV 21 2014

 **SATELLITE DATA USED TO AUGMENT SKY COVER AT AUTOMATED STATIONS**
 *****  WEATHER ACROSS EASTERN NORTH DAKOTA  *****

CITY           SKY/WX    TMP DP  RH WIND       PRES   REMARKS
GRAND FORKS    PTCLDY    31  25  78 S7        29.61R WCI  24
GRAND FORKS AF PTCLDY    37  30  75 W10       29.60R
GRAND CITY NWS   N/A     28 N/A N/A SW5         N/A  WCI  23
BUXTON           N/A     29  28  95 S9          N/A  WCI  21
DEVILS LAKE    CLEAR     36  25  64 W14       29.59S
FARGO          PTCLDY    29  24  82 S12       29.69F WCI  19
WAHPETON ARPT  MOCLDY    28  25  86 S6        29.74S WCI  22
$$

 *****  WEATHER ACROSS CENTRAL AND WESTERN NORTH DAKOTA  *****

CITY           SKY/WX    TMP DP  RH WIND       PRES   REMARKS
JAMESTOWN      CLEAR     37  28  70 W14       29.66S
BISMARCK       PTCLDY    35  28  75 SW5       29.71S
MINOT          CLEAR     35  28  75 SW12      29.61S
MINOT AFB      CLEAR     33  29  86 W13       29.60S WCI  24
GARRISON         N/A     31  27  85 W8        29.64F WCI  23
WILLISTON      MOCLDY    34  29  82 SW10      29.63F
DICKINSON      CLEAR     37  27  67 SW14      29.68F
HETTINGER      PTCLDY    31  25  78 NW5       29.75F
$$

 *****  OTHER OBSERVATIONS NORTHEAST NORTH DAKOTA  *****

CITY           SKY/WX    TMP DP  RH WIND       PRES   REMARKS
WALHALLA         N/A     41  36  81 W12G20    29.55R
LANGDON        FAIR      34  32  93 W14       29.56R WCI  24
CAVALIER       MOCLDY    39  32  75 W8        29.56R
GRAFTON        FAIR      36  28  75 W15       29.58R
CANDO          FAIR      32  28  86 W9        29.60R WCI  24
FORT TOTTEN    NOT AVBL
ROLLA          FAIR      34  32  93 W6        29.58R
RUGBY          FAIR      30  27  86 SW9       29.61S WCI  22
 ***** THE ABOVE OBSERVATIONS ARE NON NWS ARE NOT QUALITY
        CONTROLLED AND MAY MIS-REPORT RAIN FOR SNOW...
$$

 *****  OTHER OBSERVATIONS SOUTHEAST NORTH DAKOTA *****

CITY           SKY/WX    TMP DP  RH WIND       PRES   REMARKS
COOPERSTOWN    NOT AVBL
VALLEY CITY    FAIR      25  25 100 SW8       29.67S WCI  16
OAKES            N/A     28  27  93 S13       29.72F WCI  18
GWINNER        CLEAR     32  28  86 SW14      29.73S WCI  22
SHEYENNE NWR     N/A     31  27  84 SW8       29.95  WCI  23
BUFFALO        NOT AVBL
WYNDMERE         N/A     34  28  80 SW10        N/A
 ***** THE ABOVE OBSERVATIONS ARE NON NWS ARE NOT QUALITY
       CONTROLLED AND MAY MIS-REPORT RAIN FOR SNOW...
$$

  *****  WEATHER ACROSS NORTHERN MINNESOTA  *****

CITY           SKY/WX    TMP DP  RH WIND       PRES   REMARKS
FLAG ISLAND    CLEAR     28  25  86 SW14      29.51S WCI  17
WARROAD        CLEAR     30  25  80 SW15G22   29.53S WCI  19
ROSEAU         CLEAR     30  25  80 SW14      29.54R WCI  20
HALLOCK        CLEAR     27  23  86 S8        29.56R WCI  18
THF RVR FALLS  CLEAR     28  25  86 S17       29.61S WCI  16
HALSTAD          N/A     30  25  82 SW14        N/A  WCI  19
FOSSTON        PTCLDY    27  23  86 S17       29.64F WCI  14
BAUDETTE       CLEAR     27  21  78 S9        29.55F WCI  18
WASKISH        PTCLDY    28  25  86 S7        29.60F WCI  21
CROOKSTON      CLEAR     28  25  86 SW14      29.64S WCI  17
$$
  *****  WEATHER ACROSS CENTRAL AND WEST MINNESOTA  *****

CITY           SKY/WX    TMP DP  RH WIND       PRES   REMARKS
BEMIDJI        PTCLDY    29  24  81 SW8       29.64F WCI  21
PARK RAPIDS    PTCLDY    24  21  88 S9        29.69F WCI  14
WADENA         PTCLDY    28  25  86 SW7       29.72S WCI  21
DETROIT LAKES  PTCLDY    32  28  86 SW10      29.70S WCI  24
MOORHEAD       PTCLDY    30  28  93 S12       29.71S WCI  21
FERGUS FALLS   PTCLDY    28  25  86 S10       29.76F WCI  19
ELBOW LAKE       N/A     29  26  90 S14       29.74F WCI  18
MORRIS MN      PTCLDY    30  27  86 S9        29.75F WCI  22
STAPLES        PTCLDY    28  25  86 S9        29.73F WCI  20
WHEATON        CLOUDY    34  28  80 S10       29.75F
$$
  *****  WEATHER ELSEWHERE ACROSS MINNESOTA  *****

CITY           SKY/WX    TMP DP  RH WIND       PRES   REMARKS
DULUTH         MOCLDY    27  20  75 SW21G31   29.73F WCI  13
INTRNTL FALLS  CLEAR     27  21  78 SW9G18    29.59F WCI  18
ELY            PTCLDY    27  19  74 SW15G23   29.65F WCI  15
CLOQUET        MOCLDY    27  19  74 S15G24    29.74F WCI  15
BRAINERD       MOCLDY    27  23  85 S17G24    29.74F WCI  14
HIBBING        MOCLDY    29  21  72 S12G20    29.69F WCI  19
ALEXANDRIA     PTCLDY    29  25  85 S14       29.77S WCI  18
SAINT CLOUD    CLOUDY    30  23  75 S17       29.83F WCI  18
MINNEAPOLIS    MOCLDY    32  25  75 S13G21    29.90F WCI  22
$$

  *****  WEATHER ACROSS SOUTH DAKOTA  *****

CITY           SKY/WX    TMP DP  RH WIND       PRES   REMARKS
SIOUX FALLS    CLOUDY    35  28  75 S14       29.88S
BROOKINGS      NOT AVBL
WATERTOWN      CLOUDY    34  29  82 S8        29.79F
HURON          PTCLDY    33  30  88 S7        29.82S
SISSETON         N/A     38  29  70 W23G30    29.70F
ABERDEEN       PTCLDY    28  24  85 S9        29.77F WCI  19
MITCHELL       MOCLDY    35  32  88 S8        29.84F
PIERRE         CLEAR     33  27  78 SW8       29.80F
MOBRIDGE       CLEAR     32  27  81 SE6       29.74F
RAPID CITY     CLEAR     33  22  63 CALM      29.81F
$$

  *****  SOME WEATHER IN NEARBY STATES *****

CITY           SKY/WX    TMP DP  RH WIND       PRES   REMARKS
GLASGOW MT     CLEAR     28  23  81 SE3       29.62F
GREAT FALLS MT CLOUDY    42  27  55 S10       29.58F
CHEYENNE WY    CLEAR     33  18  53 W12       29.95S WCI  24
SCOTTSBLUFF NE CLEAR     31  21  66 N7        29.89F WCI  24
OMAHA NE       CLOUDY    36  34  92 S15       30.01F FOG
DES MOINES IA  CLOUDY    37  28  70 S9        30.05F
DAVENPORT IA   CLOUDY    35  17  47 S14       30.13F
CHICAGO IL     CLOUDY    32  10  40 S15       30.21F WCI  22
EAU CLAIRE WI  CLOUDY    30  22  72 S13       29.94F WCI  20
LA CROSSE WI   CLOUDY    33  18  53 SE10      30.03F WCI  25
$$

  *****  SOME NATIONAL WEATHER *****

CITY           SKY/WX    TMP DP  RH WIND       PRES   REMARKS
LA GUARDIA NY  CLEAR     31  11  43 N5        30.51R
RALEIGH NC     CLEAR     29  14  53 E5        30.54R WCI  24
ATLANTA GA     CLEAR     51  32  48 NE7       30.41R
NEW ORLEANS LA PTCLDY    59  50  72 E6        30.26S
OKLAHOMA CITY  CLOUDY    61  57  87 S13       30.05R
ALBUQUERQUE NM MOCLDY    42  19  39 NE3       30.07R
SALT LAKE CITY PTCLDY    35  28  75 SE5       29.99S
LOS ANGELES CA PTCLDY    64  54  69 CALM      30.02R
BOISE ID       RAIN      36  34  93 SE7       29.87F FOG
SEATTLE WA     CLOUDY    51  48  89 S21G28    29.37R
$$

*** WEATHER ACROSS MANITOBA...SASKATCHEWAN AND ONTARIO ***
                ***ONTARIO***

CITY           SKY/WX    TMP DP  RH WIND       PRES   REMARKS
GERALDTON      CLOUDY    30  27  86 SW24G33   29.53F WCI  16
THUNDER BAY    MOCLDY    32  23  69 SW12      29.65F WCI  23
SIOUX LOOKOUT  CLEAR     27  19  74 SW10G17   29.48F WCI  17
TORONTO        MOCLDY    21   9  58 SW5       30.35F WCI  15
BIG TROUT LK   FLURRIES  18  16  93 W10       29.31S WCI   6
PICKLE LAKE    NOT AVBL
DRYDEN         NOT AVBL
KENORA         MOCLDY    27  23  86 SW16G24   29.48F WCI  14
$$
                *** MANITOBA***

CITY           SKY/WX    TMP DP  RH WIND       PRES   REMARKS
BRANDON        CLOUDY    39  34  81 W13       29.54S
DAUPHIN        NOT AVBL
ISLAND LAKE    FLURRIES N/A N/A N/A NW15        N/A
PILOT MOUND      N/A     39  34  81 W8          N/A
THE PAS        CLOUDY    23  18  80 NW15      29.57R WCI  10
THOMPSON       PTCLDY     1  -2  85 NW5       29.53R WCI  -8
WINNIPEG       CLOUDY    36  30  80 NW13      29.52R
LYNN LAKE      CLEAR     -2  -6  84 NW6       29.55S WCI -14
CHURCHILL      FLURRIES   1   0  92 N17       29.56R WCI -19
GILLAM         CLEAR     -6 -11  77 NW9       29.48R WCI -22
$$
                ***SASKATCHEWAN***

CITY           SKY/WX    TMP DP  RH WIND       PRES   REMARKS
ESTEVAN        CLEAR     28  25  86 SW8       29.58S WCI  20
KINDERSLEY     MOCLDY    27  25  93 SE9       29.48F WCI  17
LLOYDMINSTER   CLOUDY    30  28  93 E12       29.49F FOG     WCI  21
PRINCE ALBERT  CLOUDY    23  19  86 N10       29.58F WCI  12
REGINA         CLOUDY    34  34 100 W5        29.56S



USA.gov is the U.S. government's official web portal to all federal, state and local government web resources and services.